AFR1091 EDDF-LFLL

Flight info

Callsign AFR1091
Flight time 0h 52m
Altitude 31000
Route ANEKI2L/18 ANEKI Y163 HERBI Y164 MOPAN/N0423F330 DCT LUTIX DCT BENOT N869 MILPA
Aircraft A320/M-SDE3FGHIRWY/LB1

Departure

Time 2026-04-16 22:18
Airport Frankfurt Main Airport (EDDF)

Arrival

Time 2026-04-16 23:10
Airport Lyon Saint-Exupéry Airport (LFLL)
Time Latitude Longitude Altitude Speed Heading
2026-04-16 21:59 50.04802 8.56915 363 ft 0 kts 294°
2026-04-16 22:08 50.04798 8.56931 361 ft 3 kts 294°
2026-04-16 22:08 50.04791 8.56956 358 ft 2 kts 294°
2026-04-16 22:08 50.04785 8.56980 356 ft 2 kts 274°
2026-04-16 22:09 50.04784 8.57004 355 ft 2 kts 267°
2026-04-16 22:09 50.04789 8.57027 362 ft 0 kts 203°
2026-04-16 22:11 50.04768 8.57012 362 ft 10 kts 204°
2026-04-16 22:11 50.04691 8.56963 361 ft 10 kts 204°
2026-04-16 22:11 50.04630 8.56919 355 ft 9 kts 199°
2026-04-16 22:12 50.04566 8.56900 350 ft 10 kts 192°
2026-04-16 22:12 50.04492 8.56870 348 ft 11 kts 200°
2026-04-16 22:12 50.04443 8.56793 360 ft 9 kts 242°
2026-04-16 22:12 50.04419 8.56702 356 ft 11 kts 249°
2026-04-16 22:13 50.04389 8.56565 355 ft 17 kts 253°
2026-04-16 22:13 50.04342 8.56362 350 ft 23 kts 248°
2026-04-16 22:13 50.04278 8.56097 357 ft 28 kts 250°
2026-04-16 22:13 50.04211 8.55813 355 ft 29 kts 249°
2026-04-16 22:14 50.04139 8.55518 363 ft 29 kts 249°
2026-04-16 22:14 50.04069 8.55230 362 ft 29 kts 247°
2026-04-16 22:14 50.03997 8.54929 365 ft 30 kts 250°
2026-04-16 22:14 50.03920 8.54607 361 ft 33 kts 250°
2026-04-16 22:15 50.03829 8.54299 361 ft 29 kts 232°
2026-04-16 22:15 50.03752 8.54021 363 ft 29 kts 248°
2026-04-16 22:15 50.03679 8.53720 361 ft 32 kts 250°
2026-04-16 22:15 50.03598 8.53391 363 ft 32 kts 250°
2026-04-16 22:16 50.03516 8.53058 369 ft 33 kts 251°
2026-04-16 22:16 50.03461 8.52832 376 ft 18 kts 247°
2026-04-16 22:16 50.03422 8.52687 380 ft 12 kts 247°
2026-04-16 22:16 50.03394 8.52616 379 ft 12 kts 226°
2026-04-16 22:17 50.03331 8.52595 376 ft 1 kts 182°
2026-04-16 22:17 50.03267 8.52595 374 ft 36 kts 178°
2026-04-16 22:17 50.02966 8.52599 365 ft 92 kts 180°
2026-04-16 22:17 50.02164 8.52610 364 ft 151 kts 179°
2026-04-16 22:18 50.00676 8.52667 808 ft 184 kts 177°
2026-04-16 22:18 49.99477 8.52769 1313 ft 205 kts 175°
2026-04-16 22:18 49.98059 8.52875 2021 ft 220 kts 176°
2026-04-16 22:18 49.96408 8.52967 3041 ft 226 kts 178°
2026-04-16 22:19 49.94853 8.53051 4038 ft 228 kts 178°
2026-04-16 22:19 49.93241 8.53143 5065 ft 232 kts 179°
2026-04-16 22:19 49.91610 8.53242 5922 ft 236 kts 179°
2026-04-16 22:19 49.89964 8.53345 6900 ft 239 kts 179°
2026-04-16 22:20 49.88290 8.53453 7838 ft 242 kts 179°
2026-04-16 22:20 49.86613 8.53564 8802 ft 246 kts 179°
2026-04-16 22:20 49.84792 8.53690 9839 ft 250 kts 179°
2026-04-16 22:20 49.83079 8.53809 10727 ft 254 kts 179°
2026-04-16 22:21 49.81309 8.53932 11565 ft 259 kts 179°
2026-04-16 22:21 49.79469 8.54058 12458 ft 265 kts 180°
2026-04-16 22:21 49.77558 8.54086 13320 ft 271 kts 187°
2026-04-16 22:21 49.75690 8.53848 13890 ft 287 kts 188°
2026-04-16 22:22 49.73658 8.53568 14389 ft 304 kts 188°
2026-04-16 22:22 49.71458 8.53260 14866 ft 322 kts 188°
2026-04-16 22:22 49.69143 8.52942 15312 ft 339 kts 188°
2026-04-16 22:22 49.66775 8.52622 15833 ft 351 kts 188°
2026-04-16 22:23 49.64322 8.52297 16536 ft 356 kts 188°
2026-04-16 22:23 49.61830 8.51972 17302 ft 361 kts 188°
2026-04-16 22:23 49.59290 8.51642 18065 ft 365 kts 188°
2026-04-16 22:23 49.56742 8.51311 18783 ft 369 kts 188°
2026-04-16 22:24 49.54171 8.50981 19434 ft 373 kts 188°
2026-04-16 22:24 49.51565 8.50644 20085 ft 377 kts 188°
2026-04-16 22:24 49.48934 8.50298 20731 ft 382 kts 188°
2026-04-16 22:24 49.46281 8.49947 21371 ft 386 kts 188°
2026-04-16 22:25 49.43582 8.49590 22004 ft 390 kts 188°
2026-04-16 22:25 49.40862 8.49231 22618 ft 394 kts 189°
2026-04-16 22:25 49.37933 8.48845 23269 ft 399 kts 189°
2026-04-16 22:25 49.35345 8.48506 23827 ft 403 kts 189°
2026-04-16 22:26 49.32533 8.48137 24338 ft 407 kts 189°
2026-04-16 22:26 49.29712 8.47771 24855 ft 410 kts 189°
2026-04-16 22:26 49.26846 8.47402 25364 ft 414 kts 189°
2026-04-16 22:26 49.23958 8.47025 25865 ft 417 kts 189°
2026-04-16 22:27 49.21046 8.46645 26343 ft 421 kts 189°
2026-04-16 22:27 49.18120 8.46269 26825 ft 425 kts 189°
2026-04-16 22:27 49.15163 8.45888 27307 ft 428 kts 189°
2026-04-16 22:27 49.12188 8.45502 27797 ft 431 kts 189°
2026-04-16 22:28 49.09181 8.45109 28262 ft 435 kts 190°
2026-04-16 22:28 49.06175 8.44621 28722 ft 435 kts 195°
2026-04-16 22:28 49.03214 8.43647 29190 ft 435 kts 198°
2026-04-16 22:28 49.00248 8.42611 29638 ft 439 kts 198°
2026-04-16 22:29 48.97262 8.41572 30084 ft 442 kts 198°
2026-04-16 22:29 48.94258 8.40528 30506 ft 444 kts 198°
2026-04-16 22:29 48.91236 8.39482 30900 ft 447 kts 198°
2026-04-16 22:29 48.88199 8.38434 31177 ft 449 kts 198°
2026-04-16 22:30 48.82241 8.36392 31244 ft 422 kts 198°
2026-04-16 22:30 48.79429 8.35433 31244 ft 406 kts 199°
2026-04-16 22:30 48.76709 8.34487 31232 ft 400 kts 199°
2026-04-16 22:31 48.71300 8.32493 31246 ft 400 kts 199°
2026-04-16 22:31 48.65901 8.30475 31245 ft 400 kts 199°
2026-04-16 22:32 48.60471 8.28479 31247 ft 410 kts 199°
2026-04-16 22:32 48.57655 8.27439 31249 ft 424 kts 199°
2026-04-16 22:32 48.54740 8.26368 31247 ft 438 kts 199°
2026-04-16 22:33 48.51739 8.25274 31248 ft 450 kts 198°
2026-04-16 22:33 48.48657 8.24160 31246 ft 462 kts 198°
2026-04-16 22:33 48.42268 8.21854 31245 ft 482 kts 198°
2026-04-16 22:34 48.35766 8.19498 31238 ft 483 kts 198°
2026-04-16 22:34 48.29240 8.17124 31244 ft 483 kts 198°
2026-04-16 22:35 48.22873 8.14149 31250 ft 474 kts 211°
2026-04-16 22:35 48.16960 8.09779 31245 ft 474 kts 211°
2026-04-16 22:36 48.11046 8.05402 31249 ft 474 kts 211°
2026-04-16 22:36 48.05140 8.01042 31246 ft 474 kts 211°
2026-04-16 22:37 47.99220 7.96693 31247 ft 474 kts 211°
2026-04-16 22:37 47.93305 7.92362 31238 ft 474 kts 210°
2026-04-16 22:38 47.87387 7.88037 31245 ft 474 kts 210°
2026-04-16 22:38 47.81428 7.83693 31241 ft 474 kts 210°
2026-04-16 22:39 47.75513 7.79387 31242 ft 474 kts 210°
2026-04-16 22:39 47.69574 7.75081 31241 ft 474 kts 210°
2026-04-16 22:40 47.64541 7.71441 31243 ft 475 kts 210°
2026-04-16 22:40 47.57570 7.66406 31247 ft 475 kts 210°
2026-04-16 22:41 47.51624 7.62133 31247 ft 476 kts 210°
2026-04-16 22:41 47.45667 7.57860 31243 ft 476 kts 210°
2026-04-16 22:42 47.39709 7.53595 31236 ft 476 kts 210°
2026-04-16 22:42 47.33758 7.49333 31235 ft 476 kts 210°
2026-04-16 22:43 47.27794 7.45073 31247 ft 475 kts 210°
2026-04-16 22:43 47.22848 7.41559 31246 ft 474 kts 209°
2026-04-16 22:44 47.17061 7.36987 31247 ft 468 kts 221°
2026-04-16 22:44 47.14706 7.33741 31238 ft 462 kts 233°
2026-04-16 22:44 47.12707 7.30061 31247 ft 462 kts 235°
2026-04-16 22:45 47.08712 7.22675 31230 ft 462 kts 235°
2026-04-16 22:45 47.04698 7.15313 31241 ft 462 kts 234°
2026-04-16 22:46 47.00680 7.07957 31243 ft 462 kts 234°
2026-04-16 22:46 46.96665 7.00621 31246 ft 462 kts 234°
2026-04-16 22:47 46.92634 6.93273 31247 ft 462 kts 234°
2026-04-16 22:47 46.88606 6.85955 31247 ft 461 kts 234°
2026-04-16 22:48 46.84581 6.78659 31246 ft 461 kts 234°
2026-04-16 22:48 46.80539 6.71373 31245 ft 461 kts 234°
2026-04-16 22:49 46.76500 6.64097 30862 ft 460 kts 233°
2026-04-16 22:49 46.74464 6.60436 30476 ft 458 kts 233°
2026-04-16 22:49 46.72488 6.56892 29879 ft 454 kts 233°
2026-04-16 22:50 46.70429 6.53330 29344 ft 452 kts 232°
2026-04-16 22:50 46.68357 6.49888 28817 ft 450 kts 231°
2026-04-16 22:50 46.66282 6.46524 28315 ft 445 kts 230°
2026-04-16 22:50 46.64214 6.43192 27795 ft 442 kts 230°
2026-04-16 22:51 46.62142 6.39848 27270 ft 439 kts 230°
2026-04-16 22:51 46.60101 6.36540 26731 ft 437 kts 231°
2026-04-16 22:51 46.58107 6.33287 26196 ft 434 kts 231°
2026-04-16 22:51 46.56113 6.30017 25638 ft 432 kts 231°
2026-04-16 22:52 46.54102 6.26708 25066 ft 429 kts 231°
2026-04-16 22:52 46.52125 6.23460 24485 ft 427 kts 231°
2026-04-16 22:52 46.50135 6.20201 23888 ft 424 kts 231°
2026-04-16 22:52 46.48188 6.17019 23253 ft 421 kts 231°
2026-04-16 22:53 46.46247 6.13855 22711 ft 417 kts 231°
2026-04-16 22:53 46.44324 6.10728 22154 ft 413 kts 230°
2026-04-16 22:53 46.42415 6.07632 21616 ft 410 kts 230°
2026-04-16 22:53 46.40493 6.04523 21067 ft 406 kts 230°
2026-04-16 22:54 46.38616 6.01486 20557 ft 403 kts 230°
2026-04-16 22:54 46.36755 5.98477 20073 ft 400 kts 230°
2026-04-16 22:54 46.34904 5.95488 19526 ft 396 kts 230°
2026-04-16 22:54 46.33071 5.92531 19004 ft 393 kts 230°
2026-04-16 22:55 46.31227 5.89500 18491 ft 389 kts 234°
2026-04-16 22:55 46.29860 5.86170 17989 ft 383 kts 249°
2026-04-16 22:55 46.28968 5.82493 17640 ft 381 kts 252°
2026-04-16 22:55 46.28114 5.78883 17270 ft 379 kts 252°
2026-04-16 22:56 46.27262 5.75323 17092 ft 360 kts 252°
2026-04-16 22:56 46.26478 5.72078 16747 ft 328 kts 252°
2026-04-16 22:56 46.25707 5.68880 16074 ft 347 kts 252°
2026-04-16 22:56 46.24872 5.65398 15847 ft 371 kts 252°
2026-04-16 22:57 46.24034 5.61896 15517 ft 370 kts 252°
2026-04-16 22:57 46.23195 5.58393 15137 ft 368 kts 252°
2026-04-16 22:57 46.22359 5.54911 14786 ft 366 kts 252°
2026-04-16 22:57 46.21524 5.51451 14432 ft 364 kts 252°
2026-04-16 22:58 46.20686 5.47996 14074 ft 363 kts 251°
2026-04-16 22:58 46.19856 5.44566 13696 ft 360 kts 251°
2026-04-16 22:58 46.18998 5.41268 13545 ft 345 kts 245°
2026-04-16 22:58 46.17669 5.38457 13370 ft 335 kts 227°
2026-04-16 22:59 46.15874 5.36407 13159 ft 327 kts 210°
2026-04-16 22:59 46.13823 5.35000 12948 ft 318 kts 206°
2026-04-16 22:59 46.11833 5.33685 12737 ft 310 kts 206°
2026-04-16 22:59 46.09865 5.32602 12449 ft 307 kts 197°
2026-04-16 23:00 46.07802 5.31814 12042 ft 306 kts 196°
2026-04-16 23:00 46.05745 5.31038 11672 ft 305 kts 196°
2026-04-16 23:00 46.03698 5.30269 11299 ft 303 kts 195°
2026-04-16 23:00 46.01652 5.29501 10929 ft 301 kts 195°
2026-04-16 23:01 45.99653 5.28748 10577 ft 298 kts 195°
2026-04-16 23:01 45.98315 5.28241 10338 ft 297 kts 196°
2026-04-16 23:01 45.95644 5.27230 9823 ft 294 kts 195°
2026-04-16 23:01 45.93697 5.26496 9409 ft 292 kts 195°
2026-04-16 23:02 45.91710 5.25747 8991 ft 290 kts 195°
2026-04-16 23:02 45.89769 5.25026 8583 ft 288 kts 193°
2026-04-16 23:02 45.87806 5.24847 8189 ft 286 kts 178°
2026-04-16 23:02 45.85822 5.24995 7791 ft 284 kts 177°
2026-04-16 23:03 45.83831 5.25168 7393 ft 282 kts 176°
2026-04-16 23:03 45.81904 5.25322 7011 ft 280 kts 177°
2026-04-16 23:03 45.79968 5.25470 6627 ft 278 kts 177°
2026-04-16 23:03 45.78040 5.25609 6220 ft 276 kts 177°
2026-04-16 23:04 45.76104 5.25743 5793 ft 273 kts 177°
2026-04-16 23:04 45.74241 5.25869 5413 ft 271 kts 177°
2026-04-16 23:04 45.72351 5.25937 5081 ft 266 kts 179°
2026-04-16 23:04 45.70517 5.25965 4755 ft 261 kts 179°
2026-04-16 23:05 45.68731 5.25772 4412 ft 257 kts 195°
2026-04-16 23:05 45.67640 5.25131 4165 ft 255 kts 212°
2026-04-16 23:05 45.65976 5.22678 3224 ft 268 kts 238°
2026-04-16 23:05 45.64955 5.20509 3044 ft 256 kts 237°
2026-04-16 23:06 45.64290 5.19141 2982 ft 239 kts 237°
2026-04-16 23:06 45.63385 5.17305 2992 ft 214 kts 237°
2026-04-16 23:06 45.62535 5.15583 2832 ft 213 kts 237°
2026-04-16 23:06 45.61698 5.13858 2509 ft 211 kts 242°
2026-04-16 23:07 45.61377 5.11866 2499 ft 204 kts 285°
2026-04-16 23:07 45.62067 5.10332 2496 ft 170 kts 333°
2026-04-16 23:07 45.63150 5.10071 2380 ft 145 kts
2026-04-16 23:07 45.64113 5.09946 2222 ft 140 kts 353°
2026-04-16 23:08 45.65096 5.09790 2036 ft 139 kts 354°
2026-04-16 23:08 45.66015 5.09661 1878 ft 129 kts 354°
2026-04-16 23:08 45.66907 5.09523 1731 ft 129 kts 354°
2026-04-16 23:08 45.67804 5.09410 1521 ft 129 kts 357°
2026-04-16 23:09 45.68700 5.09321 1286 ft 128 kts 353°
2026-04-16 23:09 45.69590 5.09211 1158 ft 129 kts 356°
2026-04-16 23:09 45.70479 5.09098 932 ft 128 kts 353°
2026-04-16 23:09 45.71378 5.08987 805 ft 130 kts 354°
2026-04-16 23:10 45.72141 5.08898 795 ft 86 kts 354°
2026-04-16 23:10 45.72580 5.08847 787 ft 51 kts 354°
2026-04-16 23:10 45.72880 5.08811 786 ft 20 kts 348°
2026-04-16 23:10 45.72948 5.08668 785 ft 19 kts 257°
2026-04-16 23:11 45.72937 5.08472 783 ft 21 kts 263°
2026-04-16 23:11 45.72841 5.08352 784 ft 19 kts 175°
2026-04-16 23:11 45.72710 5.08367 785 ft 20 kts 173°
2026-04-16 23:11 45.72569 5.08384 787 ft 21 kts 175°
2026-04-16 23:12 45.72422 5.08403 789 ft 22 kts 173°
2026-04-16 23:12 45.72264 5.08423 791 ft 24 kts 176°
2026-04-16 23:12 45.72095 5.08442 793 ft 25 kts 174°
2026-04-16 23:12 45.71983 5.08449 794 ft 10 kts 196°
2026-04-16 23:13 45.71953 5.08376 794 ft 9 kts 276°
2026-04-16 23:13 45.71968 5.08294 794 ft 8 kts 282°
2026-04-16 23:13 45.71953 5.08225 794 ft 7 kts 219°
2026-04-16 23:13 45.71914 5.08208 795 ft 5 kts 193°
2026-04-16 23:14 45.71894 5.08185 795 ft 2 kts 255°
2026-04-16 23:14 45.71898 5.08169 795 ft 2 kts 286°
2026-04-16 23:14 45.71900 5.08130 795 ft 7 kts 271°
2026-04-16 23:14 45.71901 5.08088 794 ft 3 kts 270°
2026-04-16 23:15 45.71901 5.08057 794 ft 0 kts 271°